Weather History for Flint, MI

Change the Weather History Date:

Saturday, October 27, 2012

  Actual Average Record
Temperature  
Mean Temperature 44 °F 46 °F  
Max Temperature 53 °F 55 °F 76 °F (1927)
Min Temperature 34 °F 37 °F 21 °F (1976)
Degree Days  
Heating Degree Days 21 19  
Month to date heating degree days 331 407  
Since 1 July heating degree days 505 617  
Cooling Degree Days 0 0  
Month to date cooling degree days 11 2  
Year to date cooling degree days 864 528  
Moisture  
Dew Point 32 °F    
Average Humidity 62    
Maximum Humidity 82    
Minimum Humidity 41    
Precipitation  
Precipitation 0.00 in 0.08 in 1.05 in (1967)
Month to date precipitation 2.80 2.17  
Year to date precipitation 27.10 26.48  
Snow  
Snow 0.00 in 0.00 in 2.60 in (1967)
Month to date snowfall 0.0 0.3  
Since 1 July snowfall 0.0 0.3  
Since 1 September snowfall 0.0 0.3  
Snow Depth 0.00 in    
Sea Level Pressure  
Sea Level Pressure 30.23 in    
Wind  
Wind Speed 9 mph (North)    
Max Wind Speed 18 mph    
Max Gust Speed 24 mph    
Visibility 10 miles    
Events      
T = Trace of Precipitation, MM = Missing Value Source: NWS Daily Summary

Daily Weather History Graph

Daily Weather History Graph

Search for Another Location

Airport:

Trip Planner

Search our weather history database for the weather conditions in past years. The results will help you decide how hot, cold, wet, or windy it might be!

Date:

Astronomy

Oct. 27, 2012 Rise Set
Actual Time 8:03 AM EDT 6:33 PM EDT
Civil Twilight 7:34 AM EDT 7:02 PM EDT
Nautical Twilight 7:01 AM EDT 7:35 PM EDT
Astronomical Twilight 6:28 AM EDT 8:08 PM EDT
Moon 5:20 PM EDT (10/27) 5:55 AM EDT (10/27)
Length of Visible Light 11h 27m
Length of Day
10h 29m
Waxing Gibbous, 96% of the Moon is Illuminated
Oct 27
Waxing Gibbous
Oct 29
Full
Nov 6
Last Quarter
Nov 13
New
Nov 20
First Quarter

Hourly Weather History & Observations

Time (EDT) Temp. Windchill Dew Point Humidity Pressure Visibility Wind Dir Wind Speed Gust Speed Precip Events Conditions
12:53 AM 43.0 °F 40.3 °F 32.0 °F 65% 30.26 in 10.0 mi North 4.6 mph - N/A   Clear
1:53 AM 43.0 °F 37.2 °F 32.0 °F 65% 30.25 in 10.0 mi NNW 10.4 mph - N/A   Mostly Cloudy
2:53 AM 41.0 °F 34.7 °F 32.0 °F 70% 30.24 in 10.0 mi North 10.4 mph - N/A   Clear
3:53 AM 39.0 °F 34.0 °F 32.0 °F 76% 30.24 in 10.0 mi North 6.9 mph - N/A   Scattered Clouds
4:53 AM 37.0 °F 32.4 °F 30.9 °F 79% 30.24 in 10.0 mi NNW 5.8 mph - N/A   Clear
5:12 AM 37.4 °F 32.1 °F 32.0 °F 81% 30.22 in 10.0 mi NNW 6.9 mph - N/A   Mostly Cloudy
5:30 AM 37.4 °F 32.8 °F 30.2 °F 75% 30.22 in 10.0 mi NNW 5.8 mph - N/A   Partly Cloudy
5:53 AM 36.0 °F 31.1 °F 30.9 °F 82% 30.24 in 10.0 mi NNW 5.8 mph - N/A   Partly Cloudy
6:53 AM 36.0 °F 30.3 °F 30.0 °F 79% 30.23 in 10.0 mi North 6.9 mph - N/A   Clear
7:53 AM 35.1 °F 31.0 °F 30.0 °F 82% 30.25 in 10.0 mi NNW 4.6 mph - N/A   Clear
8:53 AM 37.0 °F 31.6 °F 30.9 °F 79% 30.25 in 10.0 mi NNW 6.9 mph - N/A   Partly Cloudy
9:53 AM 43.0 °F 38.8 °F 35.1 °F 74% 30.26 in 10.0 mi North 6.9 mph - N/A   Partly Cloudy
10:53 AM 48.0 °F - 37.9 °F 68% 30.24 in 10.0 mi North 11.5 mph - N/A   Clear
11:53 AM 48.9 °F - 35.1 °F 59% 30.24 in 10.0 mi NNE 10.4 mph - N/A   Overcast
12:53 PM 48.9 °F - 37.9 °F 66% 30.23 in 10.0 mi North 10.4 mph - N/A   Overcast
1:53 PM 51.1 °F - 32.0 °F 48% 30.21 in 10.0 mi North 15.0 mph - N/A   Mostly Cloudy
2:53 PM 53.1 °F - 30.0 °F 41% 30.19 in 10.0 mi North 12.7 mph 20.7 mph N/A   Partly Cloudy
3:53 PM 52.0 °F - 30.0 °F 43% 30.17 in 10.0 mi North 12.7 mph - N/A   Clear
4:53 PM 50.0 °F - 30.0 °F 46% 30.20 in 10.0 mi North 13.8 mph - N/A   Partly Cloudy
5:53 PM 48.0 °F - 30.0 °F 50% 30.22 in 10.0 mi North 18.4 mph 23.0 mph N/A   Scattered Clouds
6:53 PM 45.0 °F 40.1 °F 30.0 °F 56% 30.23 in 10.0 mi North 9.2 mph - N/A   Clear
7:53 PM 42.1 °F 39.2 °F 30.0 °F 62% 30.24 in 10.0 mi NNE 4.6 mph - N/A   Clear
8:53 PM 41.0 °F 35.8 °F 30.9 °F 67% 30.25 in 10.0 mi NE 8.1 mph - N/A   Clear
9:53 PM 39.9 °F 35.1 °F 30.9 °F 70% 30.25 in 10.0 mi NE 6.9 mph - N/A   Partly Cloudy
10:53 PM 41.0 °F 35.2 °F 30.9 °F 67% 30.24 in 10.0 mi NE 9.2 mph - N/A   Mostly Cloudy
11:53 PM 39.2 °F 33.0 °F 30.2 °F 70% 30.23 in 10.0 mi NE 9.2 mph - N/A   Mostly Cloudy